| time (UTC) | temp F | wind direction | speed MPH | gust MPH | rain 1hr in | rain 24hr in | rain mn in | humidity % | barometer mb |
| 20260906005335 | 88 | 177 | 7.0 | 15.0 | 0.00 | 0.00 | 0.00 | 49 | 1013.7 |
| 20260906005034 | 88 | 177 | 7.0 | 15.0 | 0.00 | 0.00 | 0.00 | 48 | 1013.7 |
| 20260906004722 | 88 | 178 | 8.0 | 15.0 | 0.00 | 0.00 | 0.00 | 48 | 1013.7 |
| 20260906004419 | 88 | 184 | 8.0 | 15.0 | 0.00 | 0.00 | 0.00 | 48 | 1013.7 |
| 20260906004109 | 88 | 176 | 8.0 | 15.0 | 0.00 | 0.00 | 0.00 | 48 | 1013.6 |
| 20260906003808 | 88 | 173 | 8.0 | 14.0 | 0.00 | 0.00 | 0.00 | 48 | 1013.6 |
| 20260906003504 | 88 | 174 | 8.0 | 14.0 | 0.00 | 0.00 | 0.00 | 48 | 1013.6 |
| 20260906003151 | 88 | 176 | 8.0 | 19.0 | 0.00 | 0.00 | 0.00 | 48 | 1013.5 |
| 20260906002843 | 88 | 177 | 9.0 | 19.0 | 0.00 | 0.00 | 0.00 | 48 | 1013.5 |
| 20260906002540 | 89 | 175 | 9.0 | 19.0 | 0.00 | 0.00 | 0.00 | 47 | 1013.5 |
| 20260906002226 | 89 | 179 | 10.0 | 19.0 | 0.00 | 0.00 | 0.00 | 48 | 1013.6 |
| 20260906001924 | 89 | 172 | 11.0 | 19.0 | 0.00 | 0.00 | 0.00 | 48 | 1013.6 |
| 20260906001624 | 89 | 187 | 11.0 | 19.0 | 0.00 | 0.00 | 0.00 | 47 | 1013.6 |
| 20260906001318 | 89 | 176 | 11.0 | 18.0 | 0.00 | 0.00 | 0.00 | 47 | 1013.6 |
| 20260906001009 | 89 | 182 | 12.0 | 20.0 | 0.00 | 0.00 | 0.00 | 48 | 1013.7 |
| 20260906000704 | 90 | 178 | 12.0 | 20.0 | 0.00 | 0.00 | 0.00 | 47 | 1013.7 |
| 20260906000410 | 90 | 180 | 12.0 | 20.0 | 0.00 | 0.00 | 0.00 | 47 | 1013.7 |
| 20260906000109 | 90 | 190 | 13.0 | 21.0 | 0.00 | 0.00 | 0.00 | 47 | 1013.7 |
| 20260905235804 | 90 | 186 | 12.0 | 21.0 | 0.00 | 0.00 | 0.00 | 46 | 1013.6 |
| 20260905235459 | 90 | 184 | 12.0 | 21.0 | 0.00 | 0.00 | 0.00 | 46 | 1013.7 |
| 20260905235202 | 90 | 193 | 12.0 | 22.0 | 0.00 | 0.00 | 0.00 | 46 | 1013.6 |
| 20260905234906 | 90 | 182 | 12.0 | 22.0 | 0.00 | 0.00 | 0.00 | 45 | 1013.7 |
| 20260905234558 | 91 | 177 | 13.0 | 22.0 | 0.00 | 0.00 | 0.00 | 44 | 1013.7 |
| 20260905234246 | 91 | 180 | 14.0 | 22.0 | 0.00 | 0.00 | 0.00 | 44 | 1013.6 |
| 20260905233942 | 92 | 184 | 13.0 | 22.0 | 0.00 | 0.00 | 0.00 | 43 | 1013.5 |
| 20260905233645 | 93 | 181 | 12.0 | 22.0 | 0.00 | 0.00 | 0.00 | 43 | 1013.6 |
| 20260905233338 | 93 | 191 | 10.0 | 22.0 | 0.00 | 0.00 | 0.00 | 42 | 1013.4 |
| 20260905233029 | 93 | 172 | 10.0 | 20.0 | 0.00 | 0.00 | 0.00 | 42 | 1013.5 |
| 20260905232721 | 93 | 177 | 11.0 | 24.0 | 0.00 | 0.00 | 0.00 | 42 | 1013.4 |
| 20260905231953 | 94 | 165 | 13.0 | 24.0 | 0.00 | 0.00 | 0.00 | 41 | 1013.5 |
| 20260905231648 | 94 | 182 | 14.0 | 24.0 | 0.00 | 0.00 | 0.00 | 42 | 1013.5 |
| 20260905230510 | 94 | 171 | 13.0 | 23.0 | 0.00 | 0.00 | 0.00 | 42 | 1013.3 |
| 20260905230213 | 94 | 175 | 14.0 | 23.0 | 0.00 | 0.00 | 0.00 | 41 | 1013.3 |
| 20260905225900 | 94 | 181 | 13.0 | 23.0 | 0.00 | 0.00 | 0.00 | 41 | 1013.4 |
| 20260905225553 | 94 | 170 | 13.0 | 23.0 | 0.00 | 0.00 | 0.00 | 40 | 1013.2 |
| 20260905224826 | 94 | 182 | 11.0 | 22.0 | 0.00 | 0.00 | 0.00 | 41 | 1013.3 |
| 20260905224514 | 94 | 185 | 10.0 | 22.0 | 0.00 | 0.00 | 0.00 | 42 | 1013.0 |
| 20260905224205 | 94 | 179 | 10.0 | 20.0 | 0.00 | 0.00 | 0.00 | 43 | 1013.0 |
| 20260905223430 | 94 | 175 | 12.0 | 22.0 | 0.00 | 0.00 | 0.00 | 43 | 1013.0 |
| 20260905223129 | 94 | 178 | 12.0 | 22.0 | 0.00 | 0.00 | 0.00 | 42 | 1013.0 |
| 20260905222816 | 93 | 181 | 11.0 | 22.0 | 0.00 | 0.00 | 0.00 | 42 | 1012.9 |
| 20260905222512 | 93 | 171 | 12.0 | 22.0 | 0.00 | 0.00 | 0.00 | 43 | 1013.0 |
| 20260905222206 | 93 | 170 | 11.0 | 22.0 | 0.00 | 0.00 | 0.00 | 43 | 1013.0 |
| 20260905221909 | 93 | 184 | 11.0 | 22.0 | 0.00 | 0.00 | 0.00 | 43 | 1013.0 |
| 20260905221558 | 94 | 192 | 10.0 | 21.0 | 0.00 | 0.00 | 0.00 | 43 | 1013.0 |
| 20260905220848 | 94 | 172 | 8.0 | 18.0 | 0.00 | 0.00 | 0.00 | 43 | 1012.9 |
| 20260905220552 | 94 | 162 | 9.0 | 20.0 | 0.00 | 0.00 | 0.00 | 42 | 1012.8 |
| 20260905220254 | 94 | 168 | 10.0 | 20.0 | 0.00 | 0.00 | 0.00 | 43 | 1012.9 |
| 20260905215946 | 94 | 164 | 10.0 | 20.0 | 0.00 | 0.00 | 0.00 | 43 | 1012.9 |
| 20260905215646 | 94 | 173 | 11.0 | 27.0 | 0.00 | 0.00 | 0.00 | 43 | 1013.0 |
| 20260905215342 | 94 | 168 | 12.0 | 27.0 | 0.00 | 0.00 | 0.00 | 43 | 1013.1 |
| 20260905214602 | 94 | 188 | 12.0 | 27.0 | 0.00 | 0.00 | 0.00 | 42 | 1013.0 |
| 20260905214249 | 94 | 173 | 11.0 | 27.0 | 0.00 | 0.00 | 0.00 | 43 | 1013.1 |
| 20260905213949 | 94 | 170 | 12.0 | 27.0 | 0.00 | 0.00 | 0.00 | 43 | 1013.1 |
| 20260905213650 | 94 | 178 | 11.0 | 24.0 | 0.00 | 0.00 | 0.00 | 44 | 1013.0 |
| 20260905213352 | 94 | 160 | 11.0 | 24.0 | 0.00 | 0.00 | 0.00 | 43 | 1013.0 |
| 20260905213044 | 94 | 182 | 9.0 | 24.0 | 0.00 | 0.00 | 0.00 | 43 | 1013.1 |
| 20260905212732 | 94 | 180 | 7.0 | 17.0 | 0.00 | 0.00 | 0.00 | 44 | 1013.1 |
| 20260905212423 | 94 | 162 | 8.0 | 17.0 | 0.00 | 0.00 | 0.00 | 44 | 1013.1 |
| 20260905211253 | 93 | 164 | 9.0 | 17.0 | 0.00 | 0.00 | 0.00 | 45 | 1013.3 |
| 20260905210957 | 93 | 177 | 8.0 | 17.0 | 0.00 | 0.00 | 0.00 | 46 | 1013.3 |
| 20260905210653 | 93 | 182 | 8.0 | 17.0 | 0.00 | 0.00 | 0.00 | 45 | 1013.4 |
| 20260905210339 | 93 | 171 | 7.0 | 19.0 | 0.00 | 0.00 | 0.00 | 45 | 1013.5 |
| 20260905210032 | 93 | 165 | 9.0 | 19.0 | 0.00 | 0.00 | 0.00 | 45 | 1013.5 |
| 20260905205311 | 93 | 186 | 9.0 | 21.0 | 0.00 | 0.00 | 0.00 | 46 | 1013.7 |
| 20260905204556 | 94 | 171 | 7.0 | 21.0 | 0.00 | 0.00 | 0.00 | 47 | 1013.9 |
| 20260905204255 | 93 | 179 | 9.0 | 21.0 | 0.00 | 0.00 | 0.00 | 48 | 1014.0 |
| 20260905203941 | 93 | 176 | 10.0 | 21.0 | 0.00 | 0.00 | 0.00 | 48 | 1014.0 |
| 20260905203206 | 93 | 182 | 11.0 | 21.0 | 0.00 | 0.00 | 0.00 | 46 | 1014.2 |
| 20260905202901 | 93 | 186 | 11.0 | 21.0 | 0.00 | 0.00 | 0.00 | 45 | 1014.2 |
| 20260905202600 | 94 | 171 | 11.0 | 21.0 | 0.00 | 0.00 | 0.00 | 45 | 1014.2 |
| 20260905201428 | 93 | 191 | 10.0 | 21.0 | 0.00 | 0.00 | 0.00 | 46 | 1014.3 |
| 20260905201127 | 93 | 185 | 9.0 | 17.0 | 0.00 | 0.00 | 0.00 | 46 | 1014.3 |
| 20260905200813 | 93 | 177 | 8.0 | 17.0 | 0.00 | 0.00 | 0.00 | 46 | 1014.4 |
| 20260905200514 | 93 | 183 | 7.0 | 17.0 | 0.00 | 0.00 | 0.00 | 46 | 1014.4 |
| 20260905200216 | 93 | 185 | 7.0 | 17.0 | 0.00 | 0.00 | 0.00 | 46 | 1014.4 |
| 20260905195917 | 93 | 171 | 6.0 | 15.0 | 0.00 | 0.00 | 0.00 | 46 | 1014.4 |
| 20260905195617 | 93 | 167 | 6.0 | 14.0 | 0.00 | 0.00 | 0.00 | 47 | 1014.6 |
| 20260905195306 | 93 | 173 | 7.0 | 19.0 | 0.00 | 0.00 | 0.00 | 47 | 1014.5 |
| 20260905195005 | 93 | 174 | 8.0 | 19.0 | 0.00 | 0.00 | 0.00 | 47 | 1014.5 |
| 20260905194706 | 93 | 173 | 9.0 | 19.0 | 0.00 | 0.00 | 0.00 | 47 | 1014.5 |
| 20260905194406 | 93 | 175 | 10.0 | 19.0 | 0.00 | 0.00 | 0.00 | 47 | 1014.5 |
| 20260905194110 | 93 | 182 | 9.0 | 19.0 | 0.00 | 0.00 | 0.00 | 47 | 1014.6 |
| 20260905193812 | 93 | 182 | 8.0 | 19.0 | 0.00 | 0.00 | 0.00 | 47 | 1014.6 |
| 20260905193504 | 93 | 182 | 8.0 | 18.0 | 0.00 | 0.00 | 0.00 | 46 | 1014.5 |
| 20260905193155 | 93 | 183 | 8.0 | 18.0 | 0.00 | 0.00 | 0.00 | 47 | 1014.5 |
| 20260905192433 | 92 | 192 | 8.0 | 18.0 | 0.00 | 0.00 | 0.00 | 47 | 1014.6 |
| 20260905192121 | 92 | 173 | 7.0 | 17.0 | 0.00 | 0.00 | 0.00 | 48 | 1014.6 |
| 20260905191809 | 91 | 176 | 7.0 | 17.0 | 0.00 | 0.00 | 0.00 | 47 | 1014.7 |
| 20260905191509 | 91 | 179 | 7.0 | 17.0 | 0.00 | 0.00 | 0.00 | 49 | 1014.6 |
| 20260905191208 | 91 | 179 | 6.0 | 17.0 | 0.00 | 0.00 | 0.00 | 47 | 1014.7 |
| 20260905190909 | 92 | 180 | 6.0 | 17.0 | 0.00 | 0.00 | 0.00 | 45 | 1014.8 |
| 20260905190558 | 92 | 179 | 5.0 | 11.0 | 0.00 | 0.00 | 0.00 | 46 | 1014.7 |
| 20260905190300 | 92 | 179 | 5.0 | 21.0 | 0.00 | 0.00 | 0.00 | 48 | 1014.7 |
| 20260905190000 | 91 | 181 | 4.0 | 21.0 | 0.00 | 0.00 | 0.00 | 46 | 1014.8 |
| 20260905185649 | 91 | 181 | 5.0 | 21.0 | 0.00 | 0.00 | 0.00 | 45 | 1014.8 |
| 20260905184929 | 91 | 186 | 9.0 | 21.0 | 0.00 | 0.00 | 0.00 | 45 | 1014.8 |
| 20260905184615 | 92 | 189 | 8.0 | 21.0 | 0.00 | 0.00 | 0.00 | 45 | 1014.7 |
| 20260905184301 | 92 | 182 | 8.0 | 18.0 | 0.00 | 0.00 | 0.00 | 44 | 1014.8 |
| 20260905183957 | 92 | 185 | 8.0 | 18.0 | 0.00 | 0.00 | 0.00 | 45 | 1014.8 |
| 20260905183655 | 92 | 188 | 8.0 | 18.0 | 0.00 | 0.00 | 0.00 | 45 | 1014.9 |
| 20260905183355 | 92 | 184 | 9.0 | 18.0 | 0.00 | 0.00 | 0.00 | 45 | 1015.0 |
| 20260905183057 | 92 | 184 | 8.0 | 17.0 | 0.00 | 0.00 | 0.00 | 46 | 1015.0 |
| 20260905182759 | 91 | 185 | 9.0 | 17.0 | 0.00 | 0.00 | 0.00 | 46 | 1015.0 |
| 20260905182453 | 91 | 186 | 9.0 | 17.0 | 0.00 | 0.00 | 0.00 | 46 | 1015.1 |
| 20260905182153 | 91 | 186 | 9.0 | 17.0 | 0.00 | 0.00 | 0.00 | 46 | 1015.0 |
| 20260905181854 | 91 | 186 | 9.0 | 20.0 | 0.00 | 0.00 | 0.00 | 45 | 1015.0 |
| 20260905181541 | 91 | 190 | 8.0 | 20.0 | 0.00 | 0.00 | 0.00 | 46 | 1015.1 |
| 20260905181229 | 91 | 184 | 8.0 | 20.0 | 0.00 | 0.00 | 0.00 | 45 | 1015.1 |
| 20260905180933 | 91 | 184 | 9.0 | 20.0 | 0.00 | 0.00 | 0.00 | 45 | 1015.1 |
| 20260905180633 | 91 | 188 | 9.0 | 20.0 | 0.00 | 0.00 | 0.00 | 47 | 1015.0 |
| 20260905180326 | 91 | 184 | 9.0 | 20.0 | 0.00 | 0.00 | 0.00 | 47 | 1015.1 |
| 20260905180018 | 90 | 188 | 7.0 | 15.0 | 0.00 | 0.00 | 0.00 | 47 | 1015.1 |
| 20260905175705 | 90 | 176 | 5.0 | 15.0 | 0.00 | 0.00 | 0.00 | 47 | 1015.1 |
| 20260905175401 | 91 | 179 | 3.0 | 18.0 | 0.00 | 0.00 | 0.00 | 46 | 1015.2 |
| 20260905175058 | 91 | 180 | 3.0 | 18.0 | 0.00 | 0.00 | 0.00 | 47 | 1015.2 |
| 20260905174747 | 91 | 180 | 5.0 | 18.0 | 0.00 | 0.00 | 0.00 | 46 | 1015.2 |
| 20260905174433 | 92 | 180 | 8.0 | 18.0 | 0.00 | 0.00 | 0.00 | 46 | 1015.2 |
| 20260905174136 | 92 | 180 | 8.0 | 18.0 | 0.00 | 0.00 | 0.00 | 46 | 1015.1 |
| 20260905173831 | 92 | 190 | 7.0 | 18.0 | 0.00 | 0.00 | 0.00 | 46 | 1015.1 |
| 20260905173527 | 92 | 183 | 5.0 | 15.0 | 0.00 | 0.00 | 0.00 | 46 | 1015.2 |
| 20260905173219 | 91 | 178 | 5.0 | 19.0 | 0.00 | 0.00 | 0.00 | 47 | 1015.3 |
| 20260905172920 | 91 | 178 | 6.0 | 19.0 | 0.00 | 0.00 | 0.00 | 47 | 1015.3 |
| 20260905172607 | 91 | 176 | 6.0 | 19.0 | 0.00 | 0.00 | 0.00 | 47 | 1015.3 |
| 20260905172310 | 91 | 184 | 7.0 | 19.0 | 0.00 | 0.00 | 0.00 | 47 | 1015.3 |
| 20260905172003 | 91 | 186 | 7.0 | 19.0 | 0.00 | 0.00 | 0.00 | 47 | 1015.4 |
| 20260905171700 | 91 | 186 | 6.0 | 19.0 | 0.00 | 0.00 | 0.00 | 46 | 1015.5 |
| 20260905171351 | 90 | 192 | 6.0 | 19.0 | 0.00 | 0.00 | 0.00 | 48 | 1015.4 |
| 20260905171051 | 90 | 178 | 6.0 | 19.0 | 0.00 | 0.00 | 0.00 | 47 | 1015.6 |
| 20260905170740 | 90 | 178 | 7.0 | 19.0 | 0.00 | 0.00 | 0.00 | 48 | 1015.4 |
| 20260905170442 | 90 | 187 | 6.0 | 19.0 | 0.00 | 0.00 | 0.00 | 48 | 1015.3 |
| 20260905165704 | 89 | 194 | 10.0 | 18.0 | 0.00 | 0.00 | 0.00 | 49 | 1015.5 |
| 20260905165404 | 89 | 194 | 11.0 | 18.0 | 0.00 | 0.00 | 0.00 | 48 | 1015.4 |
| 20260905165058 | 89 | 193 | 9.0 | 18.0 | 0.00 | 0.00 | 0.00 | 48 | 1015.4 |
| 20260905164800 | 88 | 193 | 7.0 | 15.0 | 0.00 | 0.00 | 0.00 | 49 | 1015.3 |
| 20260905164029 | 88 | 209 | 7.0 | 21.0 | 0.00 | 0.00 | 0.00 | 51 | 1015.4 |
| 20260905163728 | 88 | 209 | 9.0 | 21.0 | 0.00 | 0.00 | 0.00 | 49 | 1015.5 |
| 20260905163426 | 88 | 211 | 9.0 | 21.0 | 0.00 | 0.00 | 0.00 | 49 | 1015.5 |
| 20260905163118 | 88 | 221 | 10.0 | 21.0 | 0.00 | 0.00 | 0.00 | 49 | 1015.5 |
| 20260905162817 | 88 | 188 | 9.0 | 21.0 | 0.00 | 0.00 | 0.00 | 49 | 1015.5 |
| 20260905162520 | 88 | 192 | 9.0 | 15.0 | 0.00 | 0.00 | 0.00 | 50 | 1015.5 |
| 20260905162220 | 88 | 196 | 10.0 | 20.0 | 0.00 | 0.00 | 0.00 | 50 | 1015.5 |
| 20260905161908 | 88 | 228 | 11.0 | 20.0 | 0.00 | 0.00 | 0.00 | 50 | 1015.4 |
| 20260905161600 | 88 | 201 | 12.0 | 20.0 | 0.00 | 0.00 | 0.00 | 50 | 1015.5 |
| 20260905160820 | 88 | 215 | 11.0 | 20.0 | 0.00 | 0.00 | 0.00 | 49 | 1015.4 |
| 20260905160508 | 88 | 187 | 11.0 | 20.0 | 0.00 | 0.00 | 0.00 | 50 | 1015.5 |
| 20260905160208 | 88 | 232 | 11.0 | 17.0 | 0.00 | 0.00 | 0.00 | 50 | 1015.4 |
| 20260905155858 | 88 | 212 | 10.0 | 17.0 | 0.00 | 0.00 | 0.00 | 50 | 1015.4 |
| 20260905155601 | 87 | 197 | 10.0 | 15.0 | 0.00 | 0.00 | 0.00 | 51 | 1015.5 |
| 20260905155306 | 87 | 216 | 10.0 | 15.0 | 0.00 | 0.00 | 0.00 | 51 | 1015.4 |
| 20260905155002 | 86 | 214 | 9.0 | 15.0 | 0.00 | 0.00 | 0.00 | 52 | 1015.5 |
| 20260905154651 | 86 | 221 | 8.0 | 13.0 | 0.00 | 0.00 | 0.00 | 53 | 1015.5 |
| 20260905154349 | 85 | 217 | 7.0 | 13.0 | 0.00 | 0.00 | 0.00 | 54 | 1015.4 |
| 20260905154049 | 84 | 214 | 6.0 | 11.0 | 0.00 | 0.00 | 0.00 | 57 | 1015.6 |
| 20260905153738 | 83 | 218 | 5.0 | 11.0 | 0.00 | 0.00 | 0.00 | 57 | 1015.6 |
| 20260905153439 | 83 | 218 | 4.0 | 11.0 | 0.00 | 0.00 | 0.00 | 57 | 1015.5 |
| 20260905153132 | 83 | 218 | 3.0 | 10.0 | 0.00 | 0.00 | 0.00 | 57 | 1015.4 |
| 20260905152835 | 83 | 219 | 4.0 | 10.0 | 0.00 | 0.00 | 0.00 | 58 | 1015.5 |
| 20260905152529 | 82 | 220 | 4.0 | 10.0 | 0.00 | 0.00 | 0.00 | 59 | 1015.6 |
| 20260905152232 | 82 | 220 | 5.0 | 10.0 | 0.00 | 0.00 | 0.00 | 59 | 1015.6 |
| 20260905151920 | 82 | 221 | 5.0 | 13.0 | 0.00 | 0.00 | 0.00 | 59 | 1015.6 |
| 20260905151614 | 82 | 221 | 7.0 | 13.0 | 0.00 | 0.00 | 0.00 | 59 | 1015.6 |
| 20260905151304 | 82 | 225 | 8.0 | 13.0 | 0.00 | 0.00 | 0.00 | 59 | 1015.6 |
| 20260905150540 | 82 | 227 | 9.0 | 13.0 | 0.00 | 0.00 | 0.00 | 57 | 1015.5 |
| 20260905150229 | 82 | 228 | 8.0 | 13.0 | 0.00 | 0.00 | 0.00 | 57 | 1015.4 |
| 20260905145931 | 82 | 229 | 9.0 | 13.0 | 0.00 | 0.00 | 0.00 | 57 | 1015.4 |
| 20260905145210 | 82 | 225 | 8.0 | 13.0 | 0.00 | 0.00 | 0.00 | 58 | 1015.2 |
| 20260905144905 | 81 | 227 | 8.0 | 13.0 | 0.00 | 0.00 | 0.00 | 59 | 1015.2 |
| 20260905144554 | 81 | 241 | 8.0 | 11.0 | 0.00 | 0.00 | 0.00 | 60 | 1015.2 |
| 20260905144254 | 81 | 244 | 8.0 | 11.0 | 0.00 | 0.00 | 0.00 | 60 | 1015.2 |
| 20260905143953 | 81 | 246 | 7.0 | 12.0 | 0.00 | 0.00 | 0.00 | 61 | 1015.1 |
| 20260905143652 | 80 | 252 | 6.0 | 12.0 | 0.00 | 0.00 | 0.00 | 63 | 1014.9 |
| 20260905143340 | 79 | 252 | 6.0 | 12.0 | 0.00 | 0.00 | 0.00 | 63 | 1014.9 |
| 20260905143039 | 79 | 259 | 7.0 | 12.0 | 0.00 | 0.00 | 0.00 | 65 | 1014.9 |
| 20260905142733 | 79 | 259 | 8.0 | 12.0 | 0.00 | 0.00 | 0.00 | 64 | 1014.8 |
| 20260905142012 | 78 | 257 | 6.0 | 11.0 | 0.00 | 0.00 | 0.00 | 66 | 1014.7 |
| 20260905141701 | 77 | 258 | 6.0 | 12.0 | 0.00 | 0.00 | 0.00 | 67 | 1014.7 |
| 20260905141356 | 77 | 258 | 6.0 | 12.0 | 0.00 | 0.00 | 0.00 | 67 | 1014.7 |
| 20260905141056 | 77 | 258 | 7.0 | 12.0 | 0.00 | 0.00 | 0.00 | 67 | 1014.6 |
| 20260905140747 | 77 | 258 | 8.0 | 12.0 | 0.00 | 0.00 | 0.00 | 66 | 1014.6 |
| 20260905140448 | 77 | 258 | 8.0 | 12.0 | 0.00 | 0.00 | 0.00 | 66 | 1014.7 |
| 20260905140149 | 78 | 258 | 8.0 | 12.0 | 0.00 | 0.00 | 0.00 | 65 | 1014.7 |
| 20260905135838 | 78 | 258 | 8.0 | 12.0 | 0.00 | 0.00 | 0.00 | 65 | 1014.7 |
| 20260905135531 | 78 | 252 | 9.0 | 14.0 | 0.00 | 0.00 | 0.00 | 65 | 1014.7 |
| 20260905135234 | 78 | 252 | 9.0 | 14.0 | 0.00 | 0.00 | 0.00 | 65 | 1014.6 |
| 20260905134926 | 78 | 254 | 9.0 | 14.0 | 0.00 | 0.00 | 0.00 | 65 | 1014.7 |
| 20260905134620 | 78 | 257 | 10.0 | 14.0 | 0.00 | 0.00 | 0.00 | 65 | 1014.7 |
| 20260905134314 | 77 | 256 | 9.0 | 14.0 | 0.00 | 0.00 | 0.00 | 65 | 1014.6 |
| 20260905134003 | 77 | 256 | 9.0 | 14.0 | 0.00 | 0.00 | 0.00 | 65 | 1014.6 |
| 20260905133649 | 77 | 251 | 8.0 | 14.0 | 0.00 | 0.00 | 0.00 | 65 | 1014.5 |
| 20260905133348 | 77 | 251 | 8.0 | 14.0 | 0.00 | 0.00 | 0.00 | 66 | 1014.5 |
| 20260905133035 | 77 | 252 | 8.0 | 14.0 | 0.00 | 0.00 | 0.00 | 66 | 1014.6 |
| 20260905132737 | 77 | 250 | 8.0 | 14.0 | 0.00 | 0.00 | 0.00 | 66 | 1014.6 |
| 20260905132438 | 76 | 248 | 8.0 | 14.0 | 0.00 | 0.00 | 0.00 | 66 | 1014.5 |
| 20260905131711 | 76 | 229 | 6.0 | 12.0 | 0.00 | 0.00 | 0.00 | 67 | 1014.4 |
| 20260905131403 | 76 | 225 | 6.0 | 11.0 | 0.00 | 0.00 | 0.00 | 67 | 1014.4 |
| 20260905131057 | 75 | 225 | 6.0 | 11.0 | 0.00 | 0.00 | 0.00 | 68 | 1014.5 |
| 20260905130336 | 74 | 225 | 7.0 | 11.0 | 0.00 | 0.00 | 0.00 | 68 | 1014.4 |
| 20260905130024 | 74 | 225 | 7.0 | 11.0 | 0.00 | 0.00 | 0.00 | 68 | 1014.3 |
| 20260905125710 | 74 | 225 | 7.0 | 10.0 | 0.00 | 0.00 | 0.00 | 68 | 1014.3 |
| 20260905125408 | 73 | 225 | 7.0 | 10.0 | 0.00 | 0.00 | 0.00 | 68 | 1014.2 |
| 20260905124644 | 73 | 223 | 7.0 | 10.0 | 0.00 | 0.00 | 0.00 | 69 | 1014.2 |
| 20260905124331 | 72 | 221 | 6.0 | 10.0 | 0.00 | 0.00 | 0.00 | 69 | 1014.1 |
| 20260905124032 | 72 | 221 | 6.0 | 10.0 | 0.00 | 0.00 | 0.00 | 69 | 1014.0 |
| 20260905123719 | 72 | 220 | 6.0 | 10.0 | 0.00 | 0.00 | 0.00 | 69 | 1014.1 |
| 20260905122952 | 72 | 220 | 7.0 | 10.0 | 0.00 | 0.00 | 0.00 | 69 | 1013.8 |
| 20260905122647 | 72 | 220 | 7.0 | 10.0 | 0.00 | 0.00 | 0.00 | 69 | 1013.9 |
| 20260905122346 | 72 | 219 | 7.0 | 10.0 | 0.00 | 0.00 | 0.00 | 69 | 1014.0 |
| 20260905122034 | 72 | 219 | 6.0 | 9.0 | 0.00 | 0.00 | 0.00 | 69 | 1013.9 |
| 20260905121721 | 72 | 217 | 6.0 | 9.0 | 0.00 | 0.00 | 0.00 | 68 | 1014.0 |
| 20260905121424 | 72 | 216 | 6.0 | 9.0 | 0.00 | 0.00 | 0.00 | 68 | 1013.9 |
| 20260905121115 | 72 | 216 | 6.0 | 9.0 | 0.00 | 0.00 | 0.00 | 68 | 1013.9 |
| 20260905115922 | 73 | 215 | 6.0 | 8.0 | 0.00 | 0.00 | 0.00 | 67 | 1013.9 |
| 20260905115151 | 73 | 213 | 6.0 | 8.0 | 0.00 | 0.00 | 0.00 | 67 | 1013.9 |
| 20260905114843 | 73 | 213 | 6.0 | 8.0 | 0.00 | 0.00 | 0.00 | 67 | 1013.9 |
| 20260905113656 | 73 | 213 | 6.0 | 8.0 | 0.00 | 0.00 | 0.00 | 68 | 1014.2 |
| 20260905113352 | 73 | 213 | 6.0 | 8.0 | 0.00 | 0.00 | 0.00 | 67 | 1014.2 |
| 20260905113051 | 73 | 213 | 7.0 | 10.0 | 0.00 | 0.00 | 0.00 | 67 | 1014.3 |
| 20260905112317 | 74 | 213 | 7.0 | 10.0 | 0.00 | 0.00 | 0.00 | 67 | 1014.3 |
| 20260905112012 | 74 | 213 | 7.0 | 10.0 | 0.00 | 0.00 | 0.00 | 67 | 1014.3 |
| 20260905111705 | 74 | 213 | 7.0 | 10.0 | 0.00 | 0.00 | 0.00 | 67 | 1014.3 |
| 20260905111409 | 74 | 213 | 7.0 | 10.0 | 0.00 | 0.00 | 0.00 | 67 | 1014.3 |
| 20260905111103 | 74 | 213 | 6.0 | 9.0 | 0.00 | 0.00 | 0.00 | 67 | 1014.4 |
| 20260905110755 | 74 | 213 | 6.0 | 9.0 | 0.00 | 0.00 | 0.00 | 67 | 1014.5 |
| 20260905110451 | 74 | 213 | 7.0 | 10.0 | 0.00 | 0.00 | 0.00 | 67 | 1014.5 |
| 20260905110142 | 74 | 213 | 7.0 | 10.0 | 0.00 | 0.00 | 0.00 | 66 | 1014.5 |
| 20260905105829 | 75 | 213 | 7.0 | 10.0 | 0.00 | 0.00 | 0.00 | 66 | 1014.6 |
| 20260905105532 | 75 | 213 | 7.0 | 13.0 | 0.00 | 0.00 | 0.00 | 65 | 1014.6 |
| 20260905105220 | 75 | 213 | 8.0 | 13.0 | 0.00 | 0.00 | 0.00 | 65 | 1014.7 |
| 20260905104910 | 75 | 213 | 8.0 | 13.0 | 0.00 | 0.00 | 0.00 | 65 | 1014.7 |
| 20260905104610 | 75 | 213 | 9.0 | 17.0 | 0.00 | 0.00 | 0.00 | 64 | 1014.5 |
| 20260905104314 | 75 | 213 | 10.0 | 17.0 | 0.00 | 0.00 | 0.00 | 64 | 1014.5 |
| 20260905104008 | 76 | 213 | 11.0 | 17.0 | 0.00 | 0.00 | 0.00 | 64 | 1014.5 |
| 20260905103656 | 76 | 212 | 12.0 | 17.0 | 0.00 | 0.00 | 0.00 | 64 | 1014.4 |
| 20260905102926 | 76 | 202 | 13.0 | 19.0 | 0.00 | 0.00 | 0.00 | 64 | 1014.4 |
| 20260905101306 | 76 | 210 | 13.0 | 19.0 | 0.00 | 0.00 | 0.00 | 65 | 1014.3 |
| 20260905101003 | 76 | 212 | 13.0 | 20.0 | 0.00 | 0.00 | 0.00 | 65 | 1014.3 |
| 20260905100706 | 76 | 212 | 13.0 | 20.0 | 0.00 | 0.00 | 0.00 | 66 | 1014.3 |
| 20260905100357 | 76 | 218 | 13.0 | 20.0 | 0.00 | 0.00 | 0.00 | 66 | 1014.4 |
| 20260905095631 | 76 | 210 | 13.0 | 20.0 | 0.00 | 0.00 | 0.00 | 67 | 1014.4 |
| 20260905095317 | 76 | 214 | 13.0 | 20.0 | 0.00 | 0.00 | 0.00 | 67 | 1014.3 |
| 20260905095008 | 76 | 209 | 13.0 | 19.0 | 0.00 | 0.00 | 0.00 | 67 | 1014.3 |
| 20260905094710 | 76 | 211 | 13.0 | 19.0 | 0.00 | 0.00 | 0.00 | 67 | 1014.4 |
| 20260905093944 | 76 | 215 | 12.0 | 19.0 | 0.00 | 0.00 | 0.00 | 68 | 1014.4 |
| 20260905093630 | 76 | 212 | 12.0 | 21.0 | 0.00 | 0.00 | 0.00 | 68 | 1014.5 |
| 20260905093324 | 76 | 213 | 13.0 | 21.0 | 0.00 | 0.00 | 0.00 | 68 | 1014.4 |
| 20260905093013 | 76 | 213 | 13.0 | 21.0 | 0.00 | 0.00 | 0.00 | 68 | 1014.4 |
| 20260905092714 | 76 | 213 | 14.0 | 24.0 | 0.00 | 0.00 | 0.00 | 68 | 1014.4 |
| 20260905091542 | 76 | 211 | 17.0 | 24.0 | 0.00 | 0.00 | 0.00 | 67 | 1014.4 |
| 20260905091232 | 76 | 221 | 16.0 | 24.0 | 0.00 | 0.00 | 0.00 | 67 | 1014.4 |
| 20260905090932 | 76 | 218 | 15.0 | 24.0 | 0.00 | 0.00 | 0.00 | 66 | 1014.4 |
| 20260905090212 | 76 | 214 | 14.0 | 21.0 | 0.00 | 0.00 | 0.00 | 64 | 1014.5 |
| 20260905085905 | 76 | 213 | 14.0 | 22.0 | 0.00 | 0.00 | 0.00 | 64 | 1014.7 |
| 20260905085142 | 77 | 205 | 15.0 | 22.0 | 0.00 | 0.00 | 0.00 | 63 | 1014.6 |
| 20260905084838 | 77 | 201 | 16.0 | 24.0 | 0.00 | 0.00 | 0.00 | 63 | 1014.7 |
| 20260905084541 | 77 | 206 | 17.0 | 24.0 | 0.00 | 0.00 | 0.00 | 63 | 1014.6 |
| 20260905084228 | 77 | 205 | 17.0 | 24.0 | 0.00 | 0.00 | 0.00 | 63 | 1014.7 |
| 20260905083916 | 77 | 209 | 16.0 | 28.0 | 0.00 | 0.00 | 0.00 | 63 | 1014.6 |
| 20260905082729 | 77 | 204 | 19.0 | 28.0 | 0.00 | 0.00 | 0.00 | 62 | 1014.7 |
| 20260905082430 | 77 | 222 | 19.0 | 28.0 | 0.00 | 0.00 | 0.00 | 62 | 1014.7 |
| 20260905082130 | 77 | 200 | 19.0 | 28.0 | 0.00 | 0.00 | 0.00 | 62 | 1014.6 |
| 20260905081829 | 78 | 216 | 19.0 | 25.0 | 0.00 | 0.00 | 0.00 | 61 | 1014.8 |
| 20260905081517 | 78 | 209 | 19.0 | 25.0 | 0.00 | 0.00 | 0.00 | 61 | 1014.7 |
| 20260905081205 | 78 | 214 | 19.0 | 25.0 | 0.00 | 0.00 | 0.00 | 60 | 1014.7 |
| 20260905080851 | 78 | 215 | 19.0 | 25.0 | 0.00 | 0.00 | 0.00 | 60 | 1014.7 |
| 20260905080541 | 78 | 209 | 18.0 | 25.0 | 0.00 | 0.00 | 0.00 | 60 | 1014.8 |
| 20260905080239 | 78 | 213 | 17.0 | 25.0 | 0.00 | 0.00 | 0.00 | 61 | 1014.7 |
| 20260905075925 | 78 | 211 | 18.0 | 25.0 | 0.00 | 0.00 | 0.00 | 61 | 1014.8 |
| 20260905075621 | 78 | 207 | 18.0 | 24.0 | 0.00 | 0.00 | 0.00 | 61 | 1014.7 |
| 20260905075324 | 77 | 208 | 18.0 | 24.0 | 0.00 | 0.00 | 0.00 | 61 | 1014.7 |
| 20260905075018 | 77 | 213 | 18.0 | 24.0 | 0.00 | 0.00 | 0.00 | 61 | 1014.7 |
| 20260905074708 | 77 | 202 | 18.0 | 24.0 | 0.00 | 0.00 | 0.00 | 61 | 1014.7 |
| 20260905074358 | 77 | 215 | 18.0 | 28.0 | 0.00 | 0.00 | 0.00 | 61 | 1014.7 |
| 20260905074050 | 77 | 202 | 19.0 | 28.0 | 0.00 | 0.00 | 0.00 | 60 | 1014.8 |
| 20260905073740 | 77 | 202 | 20.0 | 28.0 | 0.00 | 0.00 | 0.00 | 60 | 1014.7 |
| 20260905073428 | 77 | 201 | 20.0 | 28.0 | 0.00 | 0.00 | 0.00 | 59 | 1014.8 |
| 20260905072706 | 76 | 201 | 20.0 | 28.0 | 0.00 | 0.00 | 0.00 | 59 | 1014.9 |
| 20260905071939 | 76 | 204 | 20.0 | 28.0 | 0.00 | 0.00 | 0.00 | 59 | 1015.0 |
| 20260905071632 | 76 | 207 | 20.0 | 28.0 | 0.00 | 0.00 | 0.00 | 60 | 1015.0 |
| 20260905071321 | 76 | 208 | 21.0 | 28.0 | 0.00 | 0.00 | 0.00 | 60 | 1015.0 |
| 20260905071020 | 76 | 213 | 20.0 | 28.0 | 0.00 | 0.00 | 0.00 | 60 | 1015.0 |
| 20260905070311 | 75 | 217 | 19.0 | 28.0 | 0.00 | 0.00 | 0.00 | 62 | 1015.0 |
| 20260905070009 | 75 | 217 | 18.0 | 26.0 | 0.00 | 0.00 | 0.00 | 63 | 1015.1 |
| 20260905065701 | 74 | 214 | 17.0 | 24.0 | 0.00 | 0.00 | 0.00 | 64 | 1015.0 |
| 20260905065405 | 74 | 221 | 16.0 | 23.0 | 0.00 | 0.00 | 0.00 | 65 | 1015.1 |
| 20260905065057 | 74 | 227 | 16.0 | 24.0 | 0.00 | 0.00 | 0.00 | 65 | 1015.2 |
| 20260905064759 | 74 | 225 | 16.0 | 24.0 | 0.00 | 0.00 | 0.00 | 65 | 1015.2 |
| 20260905064449 | 74 | 217 | 16.0 | 24.0 | 0.00 | 0.00 | 0.00 | 64 | 1015.3 |
| 20260905064144 | 74 | 216 | 16.0 | 24.0 | 0.00 | 0.00 | 0.00 | 64 | 1015.3 |
| 20260905063846 | 74 | 215 | 16.0 | 24.0 | 0.00 | 0.00 | 0.00 | 64 | 1015.3 |
| 20260905063546 | 74 | 215 | 17.0 | 24.0 | 0.00 | 0.00 | 0.00 | 64 | 1015.4 |
| 20260905062820 | 74 | 218 | 14.0 | 21.0 | 0.00 | 0.00 | 0.00 | 65 | 1015.3 |
| 20260905062046 | 75 | 214 | 13.0 | 21.0 | 0.00 | 0.00 | 0.00 | 65 | 1015.1 |
| 20260905061733 | 75 | 232 | 14.0 | 21.0 | 0.00 | 0.00 | 0.00 | 64 | 1015.3 |
| 20260905061004 | 76 | 210 | 14.0 | 21.0 | 0.00 | 0.00 | 0.00 | 62 | 1015.0 |
| 20260905060653 | 76 | 218 | 13.0 | 20.0 | 0.00 | 0.00 | 0.00 | 60 | 1015.0 |
| 20260905060342 | 77 | 215 | 13.0 | 19.0 | 0.00 | 0.00 | 0.00 | 59 | 1014.9 |
| 20260905060029 | 77 | 219 | 13.0 | 21.0 | 0.00 | 0.00 | 0.00 | 58 | 1014.9 |
| 20260905055720 | 77 | 211 | 13.0 | 21.0 | 0.00 | 0.00 | 0.00 | 59 | 1014.8 |
| 20260905055420 | 77 | 209 | 13.0 | 21.0 | 0.00 | 0.00 | 0.00 | 59 | 1014.6 |
| 20260905055116 | 77 | 217 | 14.0 | 21.0 | 0.00 | 0.00 | 0.00 | 59 | 1014.7 |
| 20260905054345 | 77 | 206 | 14.0 | 21.0 | 0.00 | 0.00 | 0.00 | 59 | 1014.8 |
| 20260905054042 | 77 | 204 | 14.0 | 21.0 | 0.00 | 0.00 | 0.00 | 60 | 1014.8 |
| 20260905053741 | 76 | 196 | 15.0 | 30.0 | 0.00 | 0.00 | 0.00 | 61 | 1014.9 |
| 20260905053434 | 76 | 188 | 17.0 | 30.0 | 0.00 | 0.00 | 0.00 | 62 | 1014.8 |
| 20260905053125 | 76 | 196 | 20.0 | 30.0 | 0.00 | 0.00 | 0.00 | 62 | 1014.8 |
| 20260905052819 | 76 | 188 | 22.0 | 30.0 | 0.00 | 0.00 | 0.00 | 62 | 1014.9 |
| 20260905052516 | 77 | 187 | 22.0 | 30.0 | 0.00 | 0.00 | 0.00 | 61 | 1014.8 |
| 20260905052203 | 77 | 214 | 20.0 | 30.0 | 0.00 | 0.00 | 0.00 | 59 | 1014.9 |
| 20260905051900 | 78 | 186 | 19.0 | 27.0 | 0.00 | 0.00 | 0.00 | 57 | 1015.0 |
| 20260905051604 | 78 | 199 | 18.0 | 24.0 | 0.00 | 0.00 | 0.00 | 55 | 1014.9 |
| 20260905051252 | 79 | 198 | 17.0 | 24.0 | 0.00 | 0.00 | 0.00 | 53 | 1014.9 |
| 20260905050952 | 79 | 189 | 16.0 | 24.0 | 0.00 | 0.00 | 0.00 | 53 | 1014.9 |
| 20260905050216 | 78 | 180 | 13.0 | 22.0 | 0.00 | 0.00 | 0.00 | 53 | 1014.3 |
| 20260905045911 | 79 | 186 | 13.0 | 28.0 | 0.00 | 0.00 | 0.00 | 52 | 1014.4 |
| 20260905045607 | 79 | 183 | 14.0 | 28.0 | 0.00 | 0.00 | 0.00 | 52 | 1014.2 |
| 20260905045300 | 79 | 172 | 14.0 | 28.0 | 0.00 | 0.00 | 0.00 | 52 | 1014.1 |
| 20260905044957 | 79 | 180 | 16.0 | 29.0 | 0.00 | 0.00 | 0.00 | 51 | 1014.0 |
| 20260905044643 | 79 | 180 | 17.0 | 29.0 | 0.00 | 0.00 | 0.00 | 51 | 1014.0 |
| 20260905044332 | 80 | 177 | 19.0 | 29.0 | 0.00 | 0.00 | 0.00 | 50 | 1014.2 |
| 20260905043608 | 80 | 175 | 21.0 | 32.0 | 0.00 | 0.00 | 0.00 | 49 | 1014.4 |
| 20260905043256 | 80 | 188 | 21.0 | 32.0 | 0.00 | 0.00 | 0.00 | 49 | 1014.1 |
| 20260905042954 | 80 | 189 | 20.0 | 32.0 | 0.00 | 0.00 | 0.00 | 49 | 1014.1 |
| 20260905042652 | 80 | 184 | 20.0 | 32.0 | 0.00 | 0.00 | 0.00 | 50 | 1014.4 |
| 20260905042354 | 80 | 178 | 21.0 | 32.0 | 0.00 | 0.00 | 0.00 | 51 | 1014.3 |
| 20260905042048 | 80 | 192 | 21.0 | 30.0 | 0.00 | 0.00 | 0.00 | 52 | 1014.4 |
| 20260905041741 | 80 | 182 | 21.0 | 30.0 | 0.00 | 0.00 | 0.00 | 52 | 1014.3 |
| 20260905041432 | 80 | 193 | 20.0 | 29.0 | 0.00 | 0.00 | 0.00 | 51 | 1014.3 |
| 20260905041119 | 80 | 188 | 20.0 | 29.0 | 0.00 | 0.00 | 0.00 | 52 | 1014.3 |
| 20260905040816 | 79 | 178 | 19.0 | 29.0 | 0.00 | 0.00 | 0.00 | 52 | 1014.3 |
| 20260905040509 | 79 | 173 | 18.0 | 29.0 | 0.00 | 0.00 | 0.00 | 53 | 1014.5 |
| 20260905040204 | 79 | 193 | 18.0 | 29.0 | 0.00 | 0.00 | 0.00 | 53 | 1014.7 |
| 20260905035858 | 79 | 173 | 18.0 | 29.0 | 0.00 | 0.00 | 0.00 | 54 | 1014.7 |
| 20260905035554 | 80 | 182 | 18.0 | 30.0 | 0.00 | 0.00 | 0.00 | 54 | 1014.7 |
| 20260905035247 | 80 | 192 | 17.0 | 30.0 | 0.00 | 0.00 | 0.00 | 54 | 1014.8 |
| 20260905034950 | 80 | 184 | 16.0 | 30.0 | 0.00 | 0.00 | 0.00 | 54 | 1014.8 |
| 20260905034641 | 79 | 173 | 17.0 | 30.0 | 0.00 | 0.00 | 0.00 | 55 | 1014.9 |
| 20260905034327 | 79 | 179 | 18.0 | 30.0 | 0.00 | 0.00 | 0.00 | 55 | 1014.8 |
| 20260905034018 | 79 | 177 | 19.0 | 30.0 | 0.00 | 0.00 | 0.00 | 55 | 1014.8 |
| 20260905033721 | 80 | 187 | 18.0 | 28.0 | 0.00 | 0.00 | 0.00 | 55 | 1014.8 |
| 20260905033421 | 80 | 182 | 18.0 | 28.0 | 0.00 | 0.00 | 0.00 | 55 | 1014.7 |
| 20260905033116 | 80 | 183 | 17.0 | 27.0 | 0.00 | 0.00 | 0.00 | 54 | 1014.8 |
| 20260905032809 | 81 | 190 | 17.0 | 27.0 | 0.00 | 0.00 | 0.00 | 52 | 1014.8 |
| 20260905032036 | 82 | 190 | 15.0 | 27.0 | 0.00 | 0.00 | 0.00 | 47 | 1014.8 |
| 20260905031726 | 82 | 182 | 15.0 | 23.0 | 0.00 | 0.00 | 0.00 | 46 | 1014.8 |
| 20260905030948 | 82 | 180 | 14.0 | 22.0 | 0.00 | 0.00 | 0.00 | 45 | 1014.6 |
| 20260905030642 | 82 | 176 | 13.0 | 22.0 | 0.00 | 0.00 | 0.00 | 45 | 1014.5 |
| 20260905030343 | 82 | 180 | 13.0 | 22.0 | 0.00 | 0.00 | 0.00 | 46 | 1014.6 |
| 20260905030043 | 82 | 186 | 13.0 | 22.0 | 0.00 | 0.00 | 0.00 | 45 | 1014.6 |
| 20260905025736 | 82 | 181 | 14.0 | 22.0 | 0.00 | 0.00 | 0.00 | 45 | 1014.5 |
| 20260905025432 | 82 | 186 | 15.0 | 22.0 | 0.00 | 0.00 | 0.00 | 45 | 1014.5 |
| 20260905025135 | 82 | 191 | 15.0 | 22.0 | 0.00 | 0.00 | 0.00 | 45 | 1014.5 |
| 20260905024838 | 82 | 188 | 15.0 | 22.0 | 0.00 | 0.00 | 0.00 | 45 | 1014.3 |
| 20260905024117 | 83 | 191 | 13.0 | 25.0 | 0.00 | 0.00 | 0.00 | 45 | 1014.2 |
| 20260905023821 | 83 | 188 | 13.0 | 25.0 | 0.00 | 0.00 | 0.00 | 44 | 1014.2 |
| 20260905023514 | 83 | 188 | 14.0 | 25.0 | 0.00 | 0.00 | 0.00 | 44 | 1014.3 |
| 20260905023217 | 83 | 194 | 14.0 | 25.0 | 0.00 | 0.00 | 0.00 | 44 | 1014.2 |
| 20260905022906 | 83 | 186 | 13.0 | 25.0 | 0.00 | 0.00 | 0.00 | 44 | 1014.1 |
| 20260905022126 | 83 | 187 | 9.0 | 17.0 | 0.00 | 0.00 | 0.00 | 42 | 1013.9 |
| 20260905021813 | 83 | 189 | 8.0 | 14.0 | 0.00 | 0.00 | 0.00 | 42 | 1013.9 |
| 20260905021509 | 83 | 192 | 8.0 | 14.0 | 0.00 | 0.00 | 0.00 | 42 | 1013.9 |
| 20260905021209 | 83 | 193 | 8.0 | 14.0 | 0.00 | 0.00 | 0.00 | 42 | 1013.9 |
| 20260905020440 | 82 | 196 | 7.0 | 12.0 | 0.00 | 0.00 | 0.00 | 43 | 1013.6 |
| 20260905020140 | 82 | 197 | 6.0 | 11.0 | 0.00 | 0.00 | 0.00 | 44 | 1013.6 |
| 20260905014953 | 81 | 200 | 2.0 | 7.0 | 0.00 | 0.00 | 0.00 | 46 | 1013.2 |
| 20260905014649 | 81 | 200 | 3.0 | 7.0 | 0.00 | 0.00 | 0.00 | 47 | 1013.0 |
| 20260905014352 | 81 | 200 | 4.0 | 7.0 | 0.00 | 0.00 | 0.00 | 47 | 1013.0 |
| 20260905014054 | 81 | 200 | 4.0 | 8.0 | 0.00 | 0.00 | 0.00 | 46 | 1013.0 |
| 20260905013747 | 81 | 200 | 5.0 | 8.0 | 0.00 | 0.00 | 0.00 | 46 | 1012.9 |
| 20260905013449 | 81 | 200 | 4.0 | 8.0 | 0.00 | 0.00 | 0.00 | 47 | 1012.8 |
| 20260905013143 | 81 | 200 | 4.0 | 12.0 | 0.00 | 0.00 | 0.00 | 47 | 1012.8 |
| 20260905012843 | 81 | 200 | 4.0 | 12.0 | 0.00 | 0.00 | 0.00 | 46 | 1012.7 |
| 20260905012533 | 82 | 200 | 5.0 | 12.0 | 0.00 | 0.00 | 0.00 | 46 | 1012.8 |
| 20260905012236 | 82 | 200 | 6.0 | 12.0 | 0.00 | 0.00 | 0.00 | 45 | 1012.8 |
| 20260905011924 | 83 | 200 | 8.0 | 20.0 | 0.00 | 0.00 | 0.00 | 45 | 1012.7 |
| 20260905011621 | 83 | 200 | 10.0 | 20.0 | 0.00 | 0.00 | 0.00 | 45 | 1012.6 |
| 20260905011318 | 83 | 200 | 11.0 | 20.0 | 0.00 | 0.00 | 0.00 | 45 | 1012.5 |
| 20260905011006 | 83 | 200 | 12.0 | 20.0 | 0.00 | 0.00 | 0.00 | 45 | 1012.5 |
| 20260905005821 | 84 | 201 | 12.0 | 20.0 | 0.00 | 0.00 | 0.00 | 47 | 1012.3 |
| 20260905005516 | 84 | 198 | 13.0 | 20.0 | 0.00 | 0.00 | 0.00 | 48 | 1012.3 |